This demonstration page uses our WeatherBlox Daily Observations layout. Learn more.

Left ArrowRight Arrow

41.86663, -103.66717

Hourly Observations for August 26, 2020

Temp ( °F °C ) Dew Point ( °F °C ) Humidity (%) Winds ( mph kmh ) Pressure ( in mb ) Visibility ( mi km ) Precip ( " mm )
12:53 am 00:53 Clear 71 21.7 56 13.3 59 59 VRB 3 6 29.73 1007 10 16.0934 0 0
1:53 am 01:53 Clear 70 21.1 54 12.2 57 57 NW 5 7 29.71 1006 10 16.0934 0 0
2:53 am 02:53 Clear 68 20 54 12.2 61 61 NNE 3 6 29.72 1006 10 16.0934 0 0
3:53 am 03:53 Clear 68 20 54 12.2 61 61 N 7 11 29.71 1006 10 16.0934 0 0
4:53 am 04:53 Clear 68 20 53 11.7 59 59 NW 5 7 29.72 1006 10 16.0934 0 0
5:53 am 05:53 Clear 68 20 51 10.6 55 55 NW 7 11 29.72 1007 10 16.0934 0 0
6:53 am 06:53 Sunny 68 20 52 11.1 57 57 NW 8 13 29.75 1008 10 16.0934 0 0
7:53 am 07:53 Sunny 69 20.6 54 12.2 59 59 WNW 7 11 29.79 1009 10 16.0934 0 0
8:53 am 08:53 Sunny 78 25.6 54 12.2 43 43 WNW 9 15 29.79 1009 10 16.0934 0 0
9:53 am 09:53 Sunny 85 29.4 54 12.2 35 35 W 7 11 29.8 1009 10 16.0934 0 0
10:53 am 10:53 Sunny 91 32.8 53 11.7 27 27 W 10 17 29.78 1009 10 16.0934 0 0
11:53 am 11:53 Sunny 93 33.9 51 10.6 24 24 WNW 9 15 29.76 1008 10 16.0934 0 0
12:53 pm 12:53 Sunny 95 35 49 9.4 21 21 W 8 13 29.76 1008 10 16.0934 0 0
1:53 pm 13:53 Sunny 98 36.7 49 9.4 19 19 NW 12 19 29.74 1007 10 16.0934 0 0
2:53 pm 14:53 Sunny 100 37.8 47 8.3 16 16 VRB 6 9 29.72 1006 10 16.0934 0 0
3:53 pm 15:53 Sunny 96 35.6 48 8.9 19 19 Calm 29.71 1006 10 16.0934 0 0
4:53 pm 16:53 Sunny 98 36.7 46 7.8 17 17 undefined N/A 29.7 1006 10 16.0934 0 0
5:53 pm 17:53 Mostly Cloudy 96 35.6 54 12.2 24 24 E 10 17 29.7 1006 10 16.0934 0 0
6:53 pm 18:53 Sunny 88 31.1 59 15 38 38 E 9 15 29.72 1006 9 14.48406 0 0
7:53 pm 19:53 Clear 80 26.7 59 15 49 49 ENE 8 13 29.74 1007 10 16.0934 0 0
8:53 pm 20:53 Clear 78 25.6 57 13.9 48 48 ENE 8 13 29.74 1007 10 16.0934 0 0
9:53 pm 21:53 Mostly Cloudy 80 26.7 56 13.3 44 44 Calm 29.74 1007 10 16.0934 0 0
10:53 pm 22:53 Mostly Cloudy 78 25.6 60 15.6 54 54 Calm 29.73 1007 10 16.0934 0 0
11:25 pm 23:25 Mostly Cloudy with Thunderstorms 77 25 58 14.4 52 52 NNE 10 17 29.66 1005 10 16.0934 0 0
11:53 pm 23:53 Mostly Cloudy 77 25 59 15 54 54 E 10 17 29.75 1008 10 16.0934 0 0

Powered by AerisWeather